Vertical_Velocity
5 -1 0 -1 -0 -4 -2 1 2 -1 -1 -4 -3 -1 -1 -1 0 -0 -1 -0 -1 -2 -1 -1 -2 -2 -1 -1 -2 -1 0 -3 -0 0 1 1 0 -2 1 -2 1 -1 -0
1 4 -1 -1 2 -2 -2 -3 -0 0 -1 -1 -0 -1 -1 -2 -2 -2 -2 -2 -2 -3 -3 -2 -1 0 0 1 -0 -1 -1 -2 1 2 1 -3 -3 -3 -3 -2 2 1 -0
1 2 0 -0 0 2 -3 -1 -1 1 1 0 -3 -0 -1 0 -1 -1 -1 -1 -1 -1 1 1 2 2 0 -3 -0 -2 1 3 0 -1 3 -0 -5 1 3 1 2 -1 -3
1 -1 9 -3 -3 1 -1 0 -1 0 2 -0 0 -1 -0 1 -1 -1 -2 -1 -1 -1 -1 -2 -2 -2 -2 1 -1 1 2 2 1 -4 7 6 -5 -0 0 -2 -1 1 -3
1 1 5 5 -5 1 -0 -1 1 3 -0 0 1 0 -0 -0 0 0 -0 -1 -2 -1 -2 -1 -2 -0 -2 -1 2 2 2 -1 -2 6 2 3 -2 -2 -1 -3 -2 -1 -2
8 -5 -1 10 -0 -2 1 -1 2 1 1 0 0 0 -0 -2 -1 1 -0 0 -1 0 -0 -1 -0 1 2 2 0 -1 -3 2 -0 -2 -1 -2 -5 -2 -4 -4 0 0 -3
5 2 -7 6 6 -3 2 -1 1 2 1 1 0 1 0 -1 -1 0 2 0 -0 1 1 1 -2 -0 1 -2 -2 -0 0 0 2 0 -0 -4 -3 -3 -4 0 2 3 3
8 12 -9 6 4 -1 -0 3 -1 0 2 0 0 0 1 2 -0 0 2 1 -0 0 0 1 2 -1 1 1 1 1 1 -5 1 -1 -3 -7 -1 1 4 4 0 -2 -1
4 22 -9 3 5 3 2 1 1 1 0 -0 -0 1 0 2 0 -1 1 1 -1 1 -0 -2 0 -1 -0 -1 -1 -2 -1 -2 -0 -2 -3 -1 -0 14 -2 -1 -2 -2 -2
13 8 -8 4 4 5 -1 1 1 2 2 1 -0 1 1 0 0 -2 1 1 -1 -1 -1 -1 -2 0 -1 -2 1 -1 -0 2 -2 -3 -4 -1 13 -2 -3 -2 -5 -0 -2
11 6 -13 0 9 2 -1 2 2 4 2 -0 2 1 2 -0 1 0 -1 1 0 -1 -0 -0 1 1 1 -0 1 -3 -3 2 4 -6 -1 13 -2 -0 -3 -2 1 -1 -1
13 33 3 -0 3 2 0 6 -2 -0 1 0 -2 0 2 -0 2 -2 -0 2 0 -0 0 -1 2 1 1 -2 -0 -0 -5 -2 -1 -4 1 2 -3 -2 -1 -3 0 -0 -0
46 39 10 4 1 -1 -0 -0 -2 -1 -0 -1 -0 -2 2 1 -1 1 -0 1 0 2 0 -1 -0 1 2 1 5 -6 9 -0 -0 -0 6 2 -2 -1 -1 -3 0 -0 -0
14 115 11 -1 -3 2 1 -1 -2 -2 -3 -0 -1 1 1 -1 -0 -1 1 -2 -1 1 -0 -2 2 -1 -2 2 1 -2 -2 -3 -1 5 3 4 3 -0 -0 -4 -1 0 -2
3 -73 131 3 -3 2 0 -1 -4 -2 -1 -1 -0 1 1 2 -0 1 1 -1 -1 1 0 -1 0 -1 1 -1 -1 -4 -3 -2 2 1 -2 -2 3 -1 -3 -1 -0 0 1
-58 -11 32 24 0 -1 0 -0 -4 -1 1 -3 -1 0 1 0 1 2 -0 1 -1 1 -1 -0 -1 -1 -0 2 -2 -0 -0 1 1 1 -1 -2 -2 -4 -3 -3 -3 -1 -1
34 -43 9 114 4 -0 4 0 -2 -4 1 0 -1 0 -1 1 -2 2 1 3 0 0 0 1 0 -0 -0 0 -0 -1 -1 -0 1 -1 -4 -1 0 -1 -3 -4 -2 -2 1
18 16 -7 -7 58 1 -3 1 -3 -2 -1 1 0 -1 -1 -1 0 3 -0 1 1 -1 0 -0 -1 -0 -1 0 -1 1 -1 0 -1 -3 -2 0 -3 -2 0 1 -2 -2 -1
4 -29 -12 2 46 5 -1 4 -1 -1 -1 1 -0 -1 0 -2 -1 1 -0 2 1 -2 -1 -2 1 1 -2 1 -0 1 -0 1 0 1 -0 0 -1 3 -2 -1 -1 -2 -0
-28 -8 6 11 -1 16 12 2 4 2 1 -1 1 -2 -2 -1 -0 1 -3 1 2 -1 0 0 -1 1 -1 -3 0 -0 1 1 0 -0 -0 -0 0 1 -1 -2 -3 -2 -3
4 -15 18 2 -17 -7 21 -10 -0 -7 -1 -2 -1 2 1 -1 -2 3 -2 -1 1 -0 0 -1 -1 -1 -1 -1 -1 1 2 1 1 -0 -1 -1 -2 -1 -1 -1 1 -2 -1
-5 -0 16 1 -12 -33 4 0 6 3 3 2 1 -0 1 -0 -3 2 -0 -1 1 -3 -0 -1 -1 -4 0 -2 -3 1 1 1 1 1 -0 -0 -1 -2 -1 0 0 0 0
-3 -5 -7 -7 15 -22 -7 -4 11 7 6 -1 -6 -4 -5 2 -2 -1 0 0 2 -1 -1 -1 -1 -3 -1 -2 4 1 -0 3 -3 0 -0 0 -2 -2 -2 -3 -2 -1 1
-7 -5 1 9 -0 8 4 -6 -4 -5 -6 -6 3 6 -0 1 -1 -3 -0 1 1 -0 -1 -3 -3 -3 2 -4 -1 1 -0 3 3 1 0 0 -1 2 -1 -1 -4 -1 0
11 -1 0 4 -3 -14 1 -4 -15 -9 3 4 4 3 -0 1 -1 -1 -3 -1 -1 -1 3 1 -2 -5 0 -3 -2 -3 1 -0 -1 1 -0 -1 -1 1 -2 -0 0 -2 -4
1 9 1 5 6 4 -0 -5 -0 -12 -3 2 -1 0 -0 -0 1 1 0 -2 -1 -3 1 2 -1 1 0 1 -1 -1 -1 -5 -5 -4 5 1 2 1 3 5 3 -1 -1
Height
1476 1474 1480 1484 1487 1493 1498 1501 1503 1506 1509 1512 1515 1517 1518 1520 1522 1524 1525 1526 1527 1527 1528 1528 1528 1528 1529 1529 1530 1530 1531 1532 1533 1533 1534 1534 1533 1534 1534 1535 1537 1535 1535
1476 1473 1478 1483 1488 1491 1496 1500 1504 1506 1509 1513 1515 1517 1519 1520 1522 1524 1525 1526 1527 1528 1528 1529 1529 1529 1529 1530 1530 1531 1532 1533 1534 1535 1535 1534 1535 1536 1536 1537 1538 1536 1536
1477 1475 1478 1483 1488 1492 1496 1499 1503 1507 1510 1512 1514 1516 1518 1520 1522 1523 1525 1526 1527 1528 1529 1529 1529 1530 1530 1531 1531 1532 1533 1533 1534 1536 1537 1538 1537 1538 1538 1538 1538 1537 1537
1479 1479 1477 1482 1487 1492 1496 1500 1503 1507 1510 1512 1514 1516 1518 1520 1521 1523 1524 1525 1527 1528 1529 1529 1530 1530 1531 1531 1532 1533 1533 1534 1536 1538 1542 1542 1541 1540 1539 1540 1540 1540 1540
1480 1481 1481 1481 1486 1491 1495 1500 1504 1507 1509 1512 1514 1515 1517 1519 1521 1522 1523 1524 1526 1527 1528 1529 1530 1530 1531 1532 1533 1533 1534 1536 1539 1541 1542 1544 1543 1541 1541 1542 1542 1542 1542
1480 1482 1482 1483 1485 1491 1495 1500 1505 1506 1509 1511 1514 1515 1517 1519 1521 1522 1523 1524 1526 1527 1528 1529 1530 1531 1531 1532 1534 1535 1537 1539 1541 1543 1544 1544 1543 1543 1543 1544 1544 1544 1543
1480 1479 1482 1483 1485 1489 1495 1499 1503 1507 1509 1511 1513 1515 1517 1518 1521 1522 1523 1525 1526 1527 1529 1530 1531 1532 1533 1534 1536 1538 1539 1541 1545 1546 1547 1547 1547 1547 1547 1547 1547 1547 1547
1476 1477 1479 1484 1485 1489 1495 1498 1502 1506 1509 1512 1513 1515 1517 1518 1520 1522 1524 1525 1527 1528 1529 1530 1532 1533 1534 1536 1538 1539 1541 1543 1547 1548 1548 1548 1550 1551 1551 1550 1550 1549 1549
1474 1475 1476 1483 1484 1488 1494 1497 1501 1505 1509 1511 1513 1515 1516 1518 1520 1523 1524 1526 1527 1529 1530 1531 1533 1534 1536 1537 1539 1541 1543 1546 1549 1550 1551 1551 1552 1553 1552 1552 1552 1552 1551
1470 1471 1473 1481 1483 1487 1491 1497 1502 1505 1508 1510 1512 1514 1516 1518 1521 1523 1524 1526 1528 1530 1531 1533 1534 1536 1537 1539 1542 1544 1547 1549 1552 1553 1554 1554 1555 1555 1555 1555 1554 1553 1552
1464 1464 1468 1477 1480 1484 1489 1495 1501 1504 1507 1509 1512 1514 1516 1517 1520 1522 1524 1526 1528 1530 1532 1533 1536 1538 1539 1542 1543 1545 1549 1554 1556 1555 1556 1556 1557 1557 1557 1556 1556 1554 1553
1459 1455 1458 1468 1475 1480 1485 1493 1498 1502 1505 1508 1511 1514 1516 1518 1520 1521 1524 1526 1528 1530 1532 1534 1537 1539 1542 1544 1547 1548 1551 1554 1556 1557 1557 1558 1559 1558 1557 1557 1557 1556 1555
1449 1443 1452 1458 1470 1477 1482 1489 1494 1500 1504 1507 1510 1514 1517 1518 1519 1522 1524 1526 1528 1530 1532 1535 1539 1542 1546 1548 1551 1550 1553 1556 1557 1558 1559 1561 1561 1560 1560 1559 1558 1558 1557
1452 1416 1446 1453 1465 1473 1482 1487 1492 1498 1502 1505 1509 1514 1516 1516 1519 1522 1524 1526 1529 1532 1534 1537 1541 1543 1547 1550 1553 1552 1553 1555 1557 1558 1561 1563 1563 1563 1562 1562 1561 1561 1559
1445 1448 1431 1449 1461 1470 1478 1484 1491 1496 1500 1504 1507 1511 1514 1517 1520 1522 1524 1526 1529 1532 1535 1538 1541 1544 1547 1551 1553 1553 1555 1557 1558 1559 1562 1564 1564 1565 1564 1564 1564 1563 1562
1452 1431 1440 1448 1454 1466 1474 1481 1488 1494 1498 1501 1506 1509 1513 1517 1520 1522 1523 1526 1528 1532 1535 1538 1540 1545 1547 1551 1552 1555 1556 1559 1560 1561 1564 1565 1565 1565 1565 1565 1565 1565 1565
1431 1444 1436 1421 1451 1462 1471 1478 1485 1491 1496 1499 1504 1508 1511 1515 1518 1520 1523 1524 1527 1531 1534 1538 1541 1544 1547 1550 1552 1555 1558 1559 1561 1563 1564 1565 1565 1565 1564 1564 1565 1565 1566
1434 1428 1447 1447 1451 1458 1467 1476 1482 1489 1494 1498 1502 1505 1509 1513 1516 1518 1521 1523 1525 1529 1533 1536 1539 1543 1546 1549 1552 1554 1557 1559 1560 1562 1564 1565 1565 1564 1564 1564 1564 1564 1565
1423 1432 1436 1441 1439 1459 1466 1474 1480 1486 1492 1496 1500 1503 1507 1511 1514 1517 1520 1522 1524 1527 1531 1535 1539 1541 1544 1549 1552 1554 1556 1558 1560 1562 1563 1563 1564 1565 1563 1563 1563 1563 1563
1430 1435 1433 1442 1451 1459 1466 1473 1479 1484 1489 1494 1497 1501 1505 1508 1512 1515 1518 1522 1523 1526 1530 1533 1537 1540 1543 1548 1551 1554 1556 1558 1559 1561 1562 1563 1563 1565 1564 1564 1563 1563 1563
1436 1441 1437 1445 1454 1457 1465 1472 1478 1481 1486 1490 1495 1499 1502 1506 1510 1513 1516 1520 1522 1524 1528 1531 1535 1538 1542 1546 1549 1553 1554 1556 1558 1559 1560 1562 1562 1564 1564 1565 1565 1563 1563
1433 1435 1437 1448 1448 1455 1466 1472 1477 1481 1484 1488 1493 1497 1500 1504 1508 1511 1513 1517 1520 1523 1526 1529 1532 1535 1539 1543 1546 1550 1553 1557 1557 1558 1559 1560 1561 1562 1563 1564 1564 1564 1563
1428 1430 1435 1440 1440 1453 1461 1468 1473 1477 1481 1485 1490 1495 1499 1501 1504 1508 1512 1515 1518 1521 1523 1526 1529 1532 1535 1540 1544 1546 1549 1551 1554 1556 1557 1558 1559 1560 1562 1563 1563 1563 1563
1425 1429 1432 1431 1433 1440 1451 1461 1466 1472 1475 1481 1487 1491 1494 1498 1502 1506 1509 1512 1515 1517 1520 1523 1526 1529 1532 1535 1540 1541 1543 1545 1550 1554 1556 1556 1557 1558 1559 1560 1561 1563 1562
1420 1422 1425 1426 1428 1438 1445 1452 1462 1469 1474 1479 1483 1486 1490 1495 1499 1502 1505 1509 1512 1515 1518 1520 1522 1525 1528 1532 1535 1537 1540 1542 1545 1548 1550 1552 1554 1556 1557 1558 1558 1559 1561
1414 1417 1422 1425 1432 1439 1443 1447 1452 1458 1468 1474 1478 1482 1485 1490 1493 1497 1501 1505 1508 1511 1514 1517 1519 1522 1525 1528 1531 1533 1536 1537 1539 1543 1546 1548 1551 1553 1555 1555 1556 1557 1558